Location: Newark
(45.2500°N, 7.5833°E)
Time: 16:13:10
(UTC+00:00)

A-11 Canister half - Pass Details

Date: 04 February 2020
Orbit: 1525 x 1684 km, 47.3° (Epoch: 17 February)

Event Time Altitude Azimuth Distance (km) Brightness Sun altitude
Rises 20:55:59 0° 293° (WNW) 4,717 12.3 -44.5°
Reaches altitude 10° 20:59:13 10° 287° (WNW) 3,748 11.6 -45.0°
Enters shadow 21:05:45 37° 249° (WSW) 2,294 10.0 -46.1°
